Location: Unspecified
(45.0173°N, 35.2345°E)
Time: 15:52:07
(UTC+02:00)

ISS - Visible Passes

Search period start: 21 January 2026 00:00
Search period end: 31 January 2026 00:00
Orbit: 413 x 423 km, 51.6° (Epoch: 20 January)

Date Brightness Start Highest point End Pass type
(mag) Time Alt. Az. Time Alt. Az. Time Alt. Az.
21 Jan -2.4 18:09:20 10° NW 18:12:12 25° N 18:12:25 25° N visible
22 Jan -2.3 17:21:14 10° WNW 17:24:04 25° N 17:26:27 13° NE visible
22 Jan -1.3 18:58:15 10° NW 18:59:24 19° NW 18:59:24 19° NW visible
23 Jan -2.8 18:10:16 10° NW 18:13:19 31° NNE 18:13:26 31° NNE visible
24 Jan -2.5 17:22:11 10° NW 17:25:07 27° N 17:27:29 13° ENE visible
24 Jan -1.6 18:58:54 10° WNW 19:00:26 25° NW 19:00:26 25° NW visible
25 Jan -3.6 18:10:51 10° NW 18:14:08 51° NNE 18:14:32 47° NE visible
26 Jan -3.1 17:22:44 10° NW 17:25:54 38° NNE 17:28:42 12° E visible
26 Jan -2.0 18:59:31 10° WNW 19:01:39 32° W 19:01:39 32° W visible
27 Jan -3.7 18:11:16 10° WNW 18:14:36 74° SSW 18:15:56 33° SE visible
28 Jan -3.8 17:23:02 10° WNW 17:26:23 72° NNE 17:29:43 10° ESE visible
28 Jan -1.3 19:00:26 10° W 19:02:49 18° SW 19:03:19 18° SSW visible
29 Jan -1.9 18:11:46 10° WNW 18:14:42 29° SW 18:17:39 10° SSE visible
30 Jan -2.7 17:23:15 10° WNW 17:26:30 48° SW 17:29:43 10° SE visible
